| time (UTC) | temp F | wind direction | speed MPH | gust MPH | rain 1hr in | rain 24hr in | rain mn in | humidity % | barometer mb |
| 20260903191802 | 101 | 231 | 4.0 | 11.0 | 0.00 | 0.00 | 0.00 | 28 | 1013.9 |
| 20260903191303 | 101 | 254 | 5.0 | 11.0 | 0.00 | 0.00 | 0.00 | 28 | 1014.0 |
| 20260903190805 | 100 | 183 | 4.0 | 7.0 | 0.00 | 0.00 | 0.00 | 29 | 1014.0 |
| 20260903190637 | 100 | 293 | 2.0 | 9.0 | 0.00 | 0.00 | 0.00 | 28 | 1014.2 |
| 20260903185803 | 99 | 223 | 5.0 | 9.0 | 0.00 | 0.00 | 0.00 | 28 | 1014.2 |
| 20260903185306 | 100 | 258 | 2.0 | 9.0 | 0.00 | 0.00 | 0.00 | 29 | 1014.4 |
| 20260903185136 | 100 | 210 | 2.0 | 9.0 | 0.00 | 0.00 | 0.00 | 28 | 1014.4 |
| 20260903184303 | 99 | 221 | 5.0 | 11.0 | 0.00 | 0.00 | 0.00 | 29 | 1014.5 |
| 20260903183803 | 99 | 298 | 3.0 | 11.0 | 0.00 | 0.00 | 0.00 | 28 | 1014.5 |
| 20260903183303 | 100 | 257 | 5.0 | 11.0 | 0.00 | 0.00 | 0.00 | 28 | 1014.6 |
| 20260903182804 | 100 | 237 | 6.0 | 11.0 | 0.00 | 0.00 | 0.00 | 29 | 1014.7 |
| 20260903182306 | 99 | 173 | 6.0 | 11.0 | 0.00 | 0.00 | 0.00 | 29 | 1014.7 |
| 20260903181803 | 98 | 324 | 5.0 | 10.0 | 0.00 | 0.00 | 0.00 | 30 | 1014.8 |
| 20260903181607 | 98 | 251 | 5.0 | 10.0 | 0.00 | 0.00 | 0.00 | 33 | 1014.9 |
| 20260903180805 | 98 | 223 | 4.0 | 13.0 | 0.00 | 0.00 | 0.00 | 29 | 1014.9 |
| 20260903180303 | 97 | 219 | 6.0 | 13.0 | 0.00 | 0.00 | 0.00 | 31 | 1015.2 |
| 20260903175807 | 98 | 243 | 5.0 | 11.0 | 0.00 | 0.00 | 0.00 | 30 | 1015.2 |
| 20260903175308 | 99 | 279 | 5.0 | 11.0 | 0.00 | 0.00 | 0.00 | 30 | 1015.2 |
| 20260903174805 | 98 | 259 | 5.0 | 11.0 | 0.00 | 0.00 | 0.00 | 32 | 1015.3 |
| 20260903174304 | 98 | 245 | 4.0 | 11.0 | 0.00 | 0.00 | 0.00 | 31 | 1015.2 |
| 20260903173803 | 97 | 204 | 5.0 | 12.0 | 0.00 | 0.00 | 0.00 | 32 | 1015.4 |
| 20260903173657 | 97 | 234 | 8.0 | 12.0 | 0.00 | 0.00 | 0.00 | 32 | 1015.4 |
| 20260903173030 | 97 | 233 | 7.0 | 12.0 | 0.00 | 0.00 | 0.00 | 32 | 1015.4 |
| 20260903172809 | 97 | 233 | 7.0 | 12.0 | 0.00 | 0.00 | 0.00 | 32 | 1015.4 |
| 20260903172306 | 96 | 268 | 4.0 | 13.0 | 0.00 | 0.00 | 0.00 | 32 | 1015.3 |
| 20260903171803 | 96 | 193 | 5.0 | 15.0 | 0.00 | 0.00 | 0.00 | 33 | 1015.4 |
| 20260903171304 | 96 | 259 | 8.0 | 16.0 | 0.00 | 0.00 | 0.00 | 33 | 1015.5 |
| 20260903170804 | 95 | 226 | 5.0 | 16.0 | 0.00 | 0.00 | 0.00 | 34 | 1015.5 |
| 20260903170309 | 95 | 159 | 7.0 | 14.0 | 0.00 | 0.00 | 0.00 | 34 | 1015.5 |
| 20260903165804 | 95 | 283 | 7.0 | 13.0 | 0.00 | 0.00 | 0.00 | 34 | 1015.6 |
| 20260903165305 | 95 | 274 | 8.0 | 14.0 | 0.00 | 0.00 | 0.00 | 34 | 1015.5 |
| 20260903164807 | 94 | 243 | 6.0 | 17.0 | 0.00 | 0.00 | 0.00 | 35 | 1015.5 |
| 20260903164304 | 94 | 231 | 6.0 | 17.0 | 0.00 | 0.00 | 0.00 | 34 | 1015.4 |
| 20260903163804 | 94 | 221 | 8.0 | 16.0 | 0.00 | 0.00 | 0.00 | 36 | 1015.5 |
| 20260903163653 | 94 | 216 | 7.0 | 16.0 | 0.00 | 0.00 | 0.00 | 36 | 1015.5 |
| 20260903162807 | 94 | 151 | 2.0 | 10.0 | 0.00 | 0.00 | 0.00 | 38 | 1015.5 |
| 20260903162306 | 93 | 241 | 3.0 | 10.0 | 0.00 | 0.00 | 0.00 | 39 | 1015.5 |
| 20260903161803 | 93 | 216 | 5.0 | 10.0 | 0.00 | 0.00 | 0.00 | 40 | 1015.6 |
| 20260903161303 | 91 | 245 | 4.0 | 11.0 | 0.00 | 0.00 | 0.00 | 40 | 1015.5 |
| 20260903161141 | 91 | 231 | 5.0 | 13.0 | 0.00 | 0.00 | 0.00 | 39 | 1015.6 |
| 20260903160304 | 91 | 275 | 7.0 | 13.0 | 0.00 | 0.00 | 0.00 | 40 | 1015.7 |
| 20260903155803 | 90 | 196 | 4.0 | 15.0 | 0.00 | 0.00 | 0.00 | 43 | 1015.7 |
| 20260903155306 | 89 | 212 | 5.0 | 15.0 | 0.00 | 0.00 | 0.00 | 42 | 1015.7 |
| 20260903154802 | 88 | 217 | 7.0 | 13.0 | 0.00 | 0.00 | 0.00 | 43 | 1015.7 |
| 20260903154302 | 88 | 226 | 4.0 | 10.0 | 0.00 | 0.00 | 0.00 | 44 | 1015.6 |
| 20260903153804 | 87 | 220 | 6.0 | 10.0 | 0.00 | 0.00 | 0.00 | 46 | 1015.6 |
| 20260903153303 | 86 | 226 | 5.0 | 12.0 | 0.00 | 0.00 | 0.00 | 46 | 1015.7 |
| 20260903152801 | 85 | 265 | 5.0 | 13.0 | 0.00 | 0.00 | 0.00 | 45 | 1015.7 |
| 20260903152306 | 85 | 243 | 4.0 | 13.0 | 0.00 | 0.00 | 0.00 | 47 | 1015.7 |
| 20260903151802 | 84 | 199 | 6.0 | 13.0 | 0.00 | 0.00 | 0.00 | 47 | 1015.7 |
| 20260903151303 | 83 | 255 | 6.0 | 13.0 | 0.00 | 0.00 | 0.00 | 48 | 1015.7 |
| 20260903150806 | 83 | 135 | 4.0 | 11.0 | 0.00 | 0.00 | 0.00 | 51 | 1015.8 |
| 20260903150301 | 82 | 197 | 5.0 | 11.0 | 0.00 | 0.00 | 0.00 | 49 | 1015.8 |
| 20260903145804 | 81 | 216 | 4.0 | 11.0 | 0.00 | 0.00 | 0.00 | 52 | 1015.9 |
| 20260903145305 | 80 | 238 | 6.0 | 11.0 | 0.00 | 0.00 | 0.00 | 51 | 1015.8 |
| 20260903144803 | 79 | 212 | 3.0 | 7.0 | 0.00 | 0.00 | 0.00 | 53 | 1015.8 |
| 20260903144303 | 78 | 230 | 4.0 | 11.0 | 0.00 | 0.00 | 0.00 | 54 | 1015.8 |
| 20260903143803 | 77 | 186 | 3.0 | 11.0 | 0.00 | 0.00 | 0.00 | 55 | 1015.8 |
| 20260903143303 | 78 | 227 | 3.0 | 10.0 | 0.00 | 0.00 | 0.00 | 54 | 1015.8 |
| 20260903142803 | 77 | 193 | 4.0 | 7.0 | 0.00 | 0.00 | 0.00 | 56 | 1015.8 |
| 20260903142305 | 76 | 178 | 4.0 | 7.0 | 0.00 | 0.00 | 0.00 | 56 | 1015.7 |
| 20260903141803 | 75 | 183 | 4.0 | 7.0 | 0.00 | 0.00 | 0.00 | 57 | 1015.7 |
| 20260903141301 | 75 | 179 | 3.0 | 7.0 | 0.00 | 0.00 | 0.00 | 58 | 1015.7 |
| 20260903140804 | 74 | 216 | 4.0 | 7.0 | 0.00 | 0.00 | 0.00 | 59 | 1015.7 |
| 20260903140303 | 74 | 213 | 3.0 | 5.0 | 0.00 | 0.00 | 0.00 | 59 | 1015.8 |
| 20260903135809 | 73 | 103 | 3.0 | 5.0 | 0.00 | 0.00 | 0.00 | 58 | 1015.8 |
| 20260903135306 | 73 | 164 | 2.0 | 6.0 | 0.00 | 0.00 | 0.00 | 59 | 1015.8 |
| 20260903134803 | 73 | 149 | 3.0 | 6.0 | 0.00 | 0.00 | 0.00 | 59 | 1015.8 |
| 20260903134302 | 73 | 131 | 3.0 | 7.0 | 0.00 | 0.00 | 0.00 | 59 | 1015.8 |
| 20260903133802 | 73 | 172 | 4.0 | 7.0 | 0.00 | 0.00 | 0.00 | 59 | 1015.9 |
| 20260903133304 | 72 | 247 | 3.0 | 6.0 | 0.00 | 0.00 | 0.00 | 59 | 1015.8 |
| 20260903133136 | 72 | 182 | 2.0 | 6.0 | 0.00 | 0.00 | 0.00 | 59 | 1015.8 |
| 20260903132652 | 72 | 141 | 4.0 | 6.0 | 0.00 | 0.00 | 0.00 | 60 | 1015.7 |
| 20260903131803 | 72 | 180 | 3.0 | 6.0 | 0.00 | 0.00 | 0.00 | 60 | 1015.6 |
| 20260903131303 | 71 | 158 | 2.0 | 5.0 | 0.00 | 0.00 | 0.00 | 60 | 1015.6 |
| 20260903131150 | 71 | 107 | 3.0 | 5.0 | 0.00 | 0.00 | 0.00 | 59 | 1015.6 |
| 20260903130302 | 71 | 147 | 2.0 | 5.0 | 0.00 | 0.00 | 0.00 | 59 | 1015.6 |
| 20260903130147 | 71 | 134 | 2.0 | 5.0 | 0.00 | 0.00 | 0.00 | 59 | 1015.6 |
| 20260903125531 | 71 | 186 | 2.0 | 5.0 | 0.00 | 0.00 | 0.00 | 59 | 1015.5 |
| 20260903125310 | 71 | 186 | 2.0 | 5.0 | 0.00 | 0.00 | 0.00 | 59 | 1015.5 |
| 20260903124802 | 71 | 128 | 2.0 | 5.0 | 0.00 | 0.00 | 0.00 | 59 | 1015.4 |
| 20260903124303 | 71 | 158 | 3.0 | 5.0 | 0.00 | 0.00 | 0.00 | 59 | 1015.4 |
| 20260903123802 | 71 | 189 | 3.0 | 6.0 | 0.00 | 0.00 | 0.00 | 60 | 1015.4 |
| 20260903123307 | 71 | 166 | 3.0 | 6.0 | 0.00 | 0.00 | 0.00 | 59 | 1015.4 |
| 20260903122803 | 70 | 151 | 2.0 | 6.0 | 0.00 | 0.00 | 0.00 | 59 | 1015.4 |
| 20260903122305 | 70 | 158 | 2.0 | 6.0 | 0.00 | 0.00 | 0.00 | 59 | 1015.2 |
| 20260903121803 | 70 | 157 | 4.0 | 6.0 | 0.00 | 0.00 | 0.00 | 59 | 1015.2 |
| 20260903121301 | 70 | 183 | 2.0 | 6.0 | 0.00 | 0.00 | 0.00 | 59 | 1015.2 |
| 20260903121133 | 70 | 158 | 3.0 | 5.0 | 0.00 | 0.00 | 0.00 | 59 | 1015.3 |
| 20260903120303 | 71 | 109 | 2.0 | 5.0 | 0.00 | 0.00 | 0.00 | 58 | 1015.2 |
| 20260903115802 | 71 | 154 | 3.0 | 7.0 | 0.00 | 0.00 | 0.00 | 58 | 1015.2 |
| 20260903115305 | 71 | 147 | 2.0 | 7.0 | 0.00 | 0.00 | 0.00 | 58 | 1015.2 |
| 20260903114810 | 71 | 195 | 4.0 | 6.0 | 0.00 | 0.00 | 0.00 | 58 | 1015.2 |
| 20260903114304 | 71 | 110 | 3.0 | 6.0 | 0.00 | 0.00 | 0.00 | 57 | 1015.3 |
| 20260903113803 | 71 | 189 | 2.0 | 6.0 | 0.00 | 0.00 | 0.00 | 57 | 1015.2 |
| 20260903113302 | 71 | 213 | 3.0 | 9.0 | 0.00 | 0.00 | 0.00 | 58 | 1015.2 |
| 20260903112825 | 71 | 182 | 4.0 | 9.0 | 0.00 | 0.00 | 0.00 | 59 | 1015.2 |
| 20260903112417 | 70 | 173 | 3.0 | 6.0 | 0.00 | 0.00 | 0.00 | 59 | 1015.1 |
| 20260903111303 | 71 | 204 | 3.0 | 7.0 | 0.00 | 0.00 | 0.00 | 59 | 1015.2 |
| 20260903110802 | 71 | 133 | 3.0 | 7.0 | 0.00 | 0.00 | 0.00 | 58 | 1015.3 |
| 20260903110302 | 71 | 140 | 1.0 | 7.0 | 0.00 | 0.00 | 0.00 | 58 | 1015.3 |
| 20260903105801 | 71 | 138 | 3.0 | 9.0 | 0.00 | 0.00 | 0.00 | 59 | 1015.3 |
| 20260903105301 | 71 | 196 | 3.0 | 9.0 | 0.00 | 0.00 | 0.00 | 60 | 1015.2 |
| 20260903104803 | 70 | 185 | 2.0 | 6.0 | 0.00 | 0.00 | 0.00 | 61 | 1015.3 |
| 20260903104302 | 70 | 121 | 3.0 | 7.0 | 0.00 | 0.00 | 0.00 | 61 | 1015.4 |
| 20260903104128 | 71 | 155 | 4.0 | 7.0 | 0.00 | 0.00 | 0.00 | 61 | 1015.3 |
| 20260903103304 | 71 | 92 | 2.0 | 9.0 | 0.00 | 0.00 | 0.00 | 61 | 1015.3 |
| 20260903102804 | 71 | 118 | 4.0 | 9.0 | 0.00 | 0.00 | 0.00 | 59 | 1015.4 |
| 20260903102305 | 72 | 110 | 3.0 | 9.0 | 0.00 | 0.00 | 0.00 | 56 | 1015.4 |
| 20260903101802 | 73 | 104 | 3.0 | 12.0 | 0.00 | 0.00 | 0.00 | 55 | 1015.4 |
| 20260903101632 | 73 | 147 | 5.0 | 12.0 | 0.00 | 0.00 | 0.00 | 55 | 1015.3 |
| 20260903100804 | 73 | 185 | 4.0 | 10.0 | 0.00 | 0.00 | 0.00 | 56 | 1015.3 |
| 20260903100511 | 72 | 152 | 5.0 | 10.0 | 0.00 | 0.00 | 0.00 | 57 | 1015.4 |
| 20260903100421 | 73 | 171 | 5.0 | 10.0 | 0.00 | 0.00 | 0.00 | 56 | 1015.3 |
| 20260903095520 | 72 | 192 | 4.0 | 6.0 | 0.00 | 0.00 | 0.00 | 59 | 1015.5 |
| 20260903095424 | 72 | 154 | 4.0 | 7.0 | 0.00 | 0.00 | 0.00 | 57 | 1015.4 |
| 20260903094629 | 72 | 217 | 3.0 | 6.0 | 0.00 | 0.00 | 0.00 | 59 | 1015.5 |
| 20260903093803 | 72 | 165 | 3.0 | 7.0 | 0.00 | 0.00 | 0.00 | 58 | 1015.6 |
| 20260903093540 | 72 | 123 | 3.0 | 7.0 | 0.00 | 0.00 | 0.00 | 58 | 1015.6 |
| 20260903093133 | 73 | 142 | 4.0 | 7.0 | 0.00 | 0.00 | 0.00 | 57 | 1015.7 |
| 20260903092306 | 73 | 185 | 2.0 | 7.0 | 0.00 | 0.00 | 0.00 | 56 | 1015.6 |
| 20260903092106 | 73 | 109 | 4.0 | 7.0 | 0.00 | 0.00 | 0.00 | 56 | 1015.6 |
| 20260903091303 | 73 | 86 | 4.0 | 10.0 | 0.00 | 0.00 | 0.00 | 56 | 1015.6 |
| 20260903091127 | 73 | 178 | 5.0 | 10.0 | 0.00 | 0.00 | 0.00 | 56 | 1015.5 |
| 20260903090302 | 74 | 247 | 4.0 | 9.0 | 0.00 | 0.00 | 0.00 | 55 | 1015.6 |
| 20260903085806 | 74 | 140 | 3.0 | 9.0 | 0.00 | 0.00 | 0.00 | 55 | 1015.6 |
| 20260903085305 | 74 | 171 | 5.0 | 9.0 | 0.00 | 0.00 | 0.00 | 54 | 1015.7 |
| 20260903084803 | 74 | 171 | 3.0 | 7.0 | 0.00 | 0.00 | 0.00 | 54 | 1015.7 |
| 20260903084302 | 74 | 186 | 3.0 | 9.0 | 0.00 | 0.00 | 0.00 | 53 | 1015.7 |
| 20260903083802 | 75 | 147 | 4.0 | 10.0 | 0.00 | 0.00 | 0.00 | 53 | 1015.8 |
| 20260903083304 | 75 | 149 | 3.0 | 10.0 | 0.00 | 0.00 | 0.00 | 52 | 1015.7 |
| 20260903082802 | 75 | 123 | 4.0 | 10.0 | 0.00 | 0.00 | 0.00 | 52 | 1015.6 |
| 20260903082306 | 75 | 134 | 4.0 | 10.0 | 0.00 | 0.00 | 0.00 | 52 | 1015.6 |
| 20260903081802 | 76 | 140 | 5.0 | 9.0 | 0.00 | 0.00 | 0.00 | 51 | 1015.6 |
| 20260903081336 | 76 | 154 | 4.0 | 10.0 | 0.00 | 0.00 | 0.00 | 50 | 1015.7 |
| 20260903081327 | 76 | 147 | 3.0 | 9.0 | 0.00 | 0.00 | 0.00 | 50 | 1015.7 |
| 20260903081315 | 76 | 114 | 3.0 | 7.0 | 0.00 | 0.00 | 0.00 | 50 | 1015.6 |
| 20260903075802 | 76 | 131 | 5.0 | 10.0 | 0.00 | 0.00 | 0.00 | 49 | 1015.7 |
| 20260903075310 | 76 | 124 | 4.0 | 11.0 | 0.00 | 0.00 | 0.00 | 49 | 1015.8 |
| 20260903074803 | 76 | 148 | 4.0 | 11.0 | 0.00 | 0.00 | 0.00 | 49 | 1015.7 |
| 20260903074302 | 76 | 159 | 4.0 | 10.0 | 0.00 | 0.00 | 0.00 | 49 | 1015.7 |
| 20260903073802 | 76 | 138 | 4.0 | 10.0 | 0.00 | 0.00 | 0.00 | 50 | 1015.7 |
| 20260903073302 | 76 | 152 | 4.0 | 11.0 | 0.00 | 0.00 | 0.00 | 51 | 1015.7 |
| 20260903072802 | 76 | 138 | 3.0 | 11.0 | 0.00 | 0.00 | 0.00 | 51 | 1015.6 |
| 20260903072626 | 75 | 162 | 4.0 | 9.0 | 0.00 | 0.00 | 0.00 | 51 | 1015.7 |
| 20260903071803 | 76 | 142 | 4.0 | 10.0 | 0.00 | 0.00 | 0.00 | 51 | 1015.7 |
| 20260903071307 | 75 | 145 | 4.0 | 11.0 | 0.00 | 0.00 | 0.00 | 51 | 1015.7 |
| 20260903070803 | 76 | 234 | 5.0 | 11.0 | 0.00 | 0.00 | 0.00 | 51 | 1015.7 |
| 20260903070302 | 76 | 123 | 4.0 | 9.0 | 0.00 | 0.00 | 0.00 | 51 | 1015.6 |
| 20260903065803 | 76 | 128 | 2.0 | 9.0 | 0.00 | 0.00 | 0.00 | 51 | 1015.7 |
| 20260903065415 | 76 | 154 | 3.0 | 9.0 | 0.00 | 0.00 | 0.00 | 50 | 1015.7 |
| 20260903065341 | 76 | 137 | 3.0 | 9.0 | 0.00 | 0.00 | 0.00 | 51 | 1015.7 |
| 20260903064814 | 76 | 154 | 3.0 | 9.0 | 0.00 | 0.00 | 0.00 | 50 | 1015.7 |
| 20260903064302 | 76 | 152 | 4.0 | 9.0 | 0.00 | 0.00 | 0.00 | 50 | 1015.7 |
| 20260903064128 | 77 | 142 | 2.0 | 9.0 | 0.00 | 0.00 | 0.00 | 50 | 1015.7 |
| 20260903063307 | 76 | 109 | 5.0 | 10.0 | 0.00 | 0.00 | 0.00 | 50 | 1015.6 |
| 20260903063133 | 76 | 192 | 4.0 | 10.0 | 0.00 | 0.00 | 0.00 | 51 | 1015.7 |
| 20260903062306 | 76 | 104 | 5.0 | 10.0 | 0.00 | 0.00 | 0.00 | 51 | 1015.7 |
| 20260903061801 | 76 | 123 | 4.0 | 10.0 | 0.00 | 0.00 | 0.00 | 51 | 1015.7 |
| 20260903061301 | 77 | 180 | 4.0 | 9.0 | 0.00 | 0.00 | 0.00 | 51 | 1015.6 |
| 20260903060803 | 77 | 151 | 3.0 | 9.0 | 0.00 | 0.00 | 0.00 | 51 | 1015.6 |
| 20260903060301 | 77 | 165 | 4.0 | 10.0 | 0.00 | 0.00 | 0.00 | 51 | 1015.6 |
| 20260903055804 | 77 | 114 | 4.0 | 10.0 | 0.00 | 0.00 | 0.00 | 51 | 1015.6 |
| 20260903055301 | 77 | 186 | 4.0 | 10.0 | 0.00 | 0.00 | 0.00 | 51 | 1015.6 |
| 20260903054802 | 77 | 140 | 3.0 | 10.0 | 0.00 | 0.00 | 0.00 | 51 | 1015.5 |
| 20260903054300 | 77 | 202 | 5.0 | 9.0 | 0.00 | 0.00 | 0.00 | 52 | 1015.6 |
| 20260903053819 | 78 | 200 | 5.0 | 9.0 | 0.00 | 0.00 | 0.00 | 51 | 1015.5 |
| 20260903053810 | 78 | 158 | 4.0 | 9.0 | 0.00 | 0.00 | 0.00 | 51 | 1015.5 |
| 20260903053803 | 78 | 193 | 4.0 | 9.0 | 0.00 | 0.00 | 0.00 | 51 | 1015.5 |
| 20260903052324 | 79 | 183 | 4.0 | 10.0 | 0.00 | 0.00 | 0.00 | 50 | 1015.5 |
| 20260903052317 | 79 | 144 | 4.0 | 9.0 | 0.00 | 0.00 | 0.00 | 50 | 1015.4 |
| 20260903052308 | 78 | 173 | 4.0 | 9.0 | 0.00 | 0.00 | 0.00 | 51 | 1015.4 |
| 20260903050802 | 79 | 175 | 4.0 | 10.0 | 0.00 | 0.00 | 0.00 | 51 | 1015.4 |
| 20260903050300 | 79 | 192 | 2.0 | 6.0 | 0.00 | 0.00 | 0.00 | 50 | 1015.4 |
| 20260903045801 | 80 | 123 | 4.0 | 9.0 | 0.00 | 0.00 | 0.00 | 49 | 1015.4 |
| 20260903045301 | 80 | 151 | 3.0 | 9.0 | 0.00 | 0.00 | 0.00 | 49 | 1015.5 |
| 20260903044802 | 80 | 137 | 4.0 | 10.0 | 0.00 | 0.00 | 0.00 | 48 | 1015.4 |
| 20260903044627 | 80 | 152 | 3.0 | 10.0 | 0.00 | 0.00 | 0.00 | 48 | 1015.4 |
| 20260903043802 | 80 | 171 | 4.0 | 9.0 | 0.00 | 0.00 | 0.00 | 48 | 1015.4 |
| 20260903043302 | 81 | 137 | 5.0 | 9.0 | 0.00 | 0.00 | 0.00 | 48 | 1015.3 |
| 20260903042801 | 80 | 114 | 4.0 | 9.0 | 0.00 | 0.00 | 0.00 | 48 | 1015.3 |
| 20260903042305 | 81 | 152 | 4.0 | 9.0 | 0.00 | 0.00 | 0.00 | 48 | 1015.3 |
| 20260903041801 | 81 | 123 | 4.0 | 9.0 | 0.00 | 0.00 | 0.00 | 48 | 1015.3 |
| 20260903041303 | 80 | 166 | 4.0 | 10.0 | 0.00 | 0.00 | 0.00 | 49 | 1015.4 |
| 20260903040802 | 80 | 165 | 4.0 | 10.0 | 0.00 | 0.00 | 0.00 | 49 | 1015.3 |
| 20260903040301 | 80 | 144 | 3.0 | 10.0 | 0.00 | 0.00 | 0.00 | 49 | 1015.3 |
| 20260903035957 | 81 | 161 | 3.0 | 7.0 | 0.00 | 0.00 | 0.00 | 48 | 1015.3 |
| 20260903035913 | 81 | 161 | 3.0 | 10.0 | 0.00 | 0.00 | 0.00 | 49 | 1015.3 |
| 20260903034801 | 81 | 155 | 3.0 | 7.0 | 0.00 | 0.00 | 0.00 | 48 | 1015.3 |
| 20260903034303 | 81 | 154 | 4.0 | 7.0 | 0.00 | 0.00 | 0.00 | 48 | 1015.3 |
| 20260903033803 | 81 | 155 | 2.0 | 9.0 | 0.00 | 0.00 | 0.00 | 47 | 1015.3 |
| 20260903033301 | 81 | 164 | 2.0 | 9.0 | 0.00 | 0.00 | 0.00 | 48 | 1015.4 |
| 20260903032950 | 81 | 158 | 4.0 | 9.0 | 0.00 | 0.00 | 0.00 | 48 | 1015.3 |
| 20260903032909 | 81 | 169 | 4.0 | 9.0 | 0.00 | 0.00 | 0.00 | 48 | 1015.4 |
| 20260903031803 | 82 | 164 | 3.0 | 7.0 | 0.00 | 0.00 | 0.00 | 47 | 1015.3 |
| 20260903031300 | 82 | 94 | 4.0 | 7.0 | 0.00 | 0.00 | 0.00 | 47 | 1015.2 |
| 20260903030801 | 82 | 111 | 3.0 | 9.0 | 0.00 | 0.00 | 0.00 | 47 | 1015.2 |
| 20260903030452 | 82 | 179 | 4.0 | 7.0 | 0.00 | 0.00 | 0.00 | 47 | 1015.1 |
| 20260903030406 | 81 | 168 | 4.0 | 9.0 | 0.00 | 0.00 | 0.00 | 47 | 1015.1 |
| 20260903025301 | 82 | 99 | 3.0 | 11.0 | 0.00 | 0.00 | 0.00 | 47 | 1014.9 |
| 20260903024801 | 82 | 148 | 4.0 | 11.0 | 0.00 | 0.00 | 0.00 | 47 | 1014.9 |
| 20260903024301 | 82 | 76 | 4.0 | 10.0 | 0.00 | 0.00 | 0.00 | 47 | 1014.9 |
| 20260903023802 | 82 | 110 | 5.0 | 9.0 | 0.00 | 0.00 | 0.00 | 47 | 1014.8 |
| 20260903023301 | 82 | 144 | 2.0 | 9.0 | 0.00 | 0.00 | 0.00 | 47 | 1014.7 |
| 20260903022801 | 82 | 140 | 4.0 | 9.0 | 0.00 | 0.00 | 0.00 | 47 | 1014.7 |
| 20260903022624 | 82 | 172 | 4.0 | 7.0 | 0.00 | 0.00 | 0.00 | 47 | 1014.7 |
| 20260903021801 | 82 | 155 | 4.0 | 7.0 | 0.00 | 0.00 | 0.00 | 46 | 1014.8 |
| 20260903021453 | 82 | 135 | 3.0 | 9.0 | 0.00 | 0.00 | 0.00 | 46 | 1014.6 |
| 20260903021409 | 82 | 149 | 4.0 | 9.0 | 0.00 | 0.00 | 0.00 | 46 | 1014.7 |
| 20260903020453 | 83 | 103 | 3.0 | 9.0 | 0.00 | 0.00 | 0.00 | 45 | 1014.6 |
| 20260903020411 | 82 | 154 | 4.0 | 7.0 | 0.00 | 0.00 | 0.00 | 46 | 1014.6 |
| 20260903015305 | 83 | 142 | 3.0 | 9.0 | 0.00 | 0.00 | 0.00 | 45 | 1014.6 |
| 20260903014803 | 83 | 148 | 4.0 | 6.0 | 0.00 | 0.00 | 0.00 | 45 | 1014.6 |
| 20260903014302 | 83 | 145 | 4.0 | 7.0 | 0.00 | 0.00 | 0.00 | 44 | 1014.6 |
| 20260903013801 | 83 | 168 | 3.0 | 7.0 | 0.00 | 0.00 | 0.00 | 44 | 1014.7 |
| 20260903013301 | 83 | 120 | 2.0 | 5.0 | 0.00 | 0.00 | 0.00 | 45 | 1014.7 |
| 20260903013124 | 83 | 135 | 0.0 | 5.0 | 0.00 | 0.00 | 0.00 | 44 | 1014.7 |
| 20260903012624 | 83 | 173 | 2.0 | 6.0 | 0.00 | 0.00 | 0.00 | 44 | 1014.9 |
| 20260903011801 | 83 | 142 | 4.0 | 6.0 | 0.00 | 0.00 | 0.00 | 44 | 1014.8 |
| 20260903011301 | 83 | 158 | 4.0 | 6.0 | 0.00 | 0.00 | 0.00 | 44 | 1014.8 |
| 20260903010801 | 84 | 179 | 2.0 | 7.0 | 0.00 | 0.00 | 0.00 | 44 | 1014.8 |
| 20260903010301 | 84 | 158 | 1.0 | 7.0 | 0.00 | 0.00 | 0.00 | 44 | 1014.9 |
| 20260903005953 | 84 | 148 | 2.0 | 7.0 | 0.00 | 0.00 | 0.00 | 44 | 1014.8 |
| 20260903005911 | 84 | 144 | 4.0 | 6.0 | 0.00 | 0.00 | 0.00 | 44 | 1014.9 |
| 20260903004802 | 85 | 125 | 3.0 | 9.0 | 0.00 | 0.00 | 0.00 | 45 | 1014.9 |
| 20260903004632 | 85 | 121 | 4.0 | 9.0 | 0.00 | 0.00 | 0.00 | 45 | 1014.9 |
| 20260903003802 | 85 | 133 | 5.0 | 10.0 | 0.00 | 0.00 | 0.00 | 45 | 1014.9 |
| 20260903003302 | 85 | 164 | 5.0 | 10.0 | 0.00 | 0.00 | 0.00 | 45 | 1015.1 |
| 20260903003131 | 86 | 151 | 4.0 | 12.0 | 0.00 | 0.00 | 0.00 | 44 | 1014.9 |
| 20260903002306 | 86 | 155 | 4.0 | 12.0 | 0.00 | 0.00 | 0.00 | 44 | 1014.9 |
| 20260903001802 | 86 | 158 | 4.0 | 12.0 | 0.00 | 0.00 | 0.00 | 45 | 1015.3 |
| 20260903001632 | 86 | 151 | 5.0 | 10.0 | 0.00 | 0.00 | 0.00 | 44 | 1015.3 |
| 20260903001133 | 86 | 173 | 6.0 | 11.0 | 0.00 | 0.00 | 0.00 | 44 | 1015.3 |
| 20260903000303 | 86 | 217 | 4.0 | 15.0 | 0.00 | 0.00 | 0.00 | 44 | 1015.3 |
| 20260902235802 | 86 | 118 | 8.0 | 15.0 | 0.00 | 0.00 | 0.00 | 42 | 1015.3 |
| 20260902235305 | 87 | 162 | 6.0 | 14.0 | 0.00 | 0.00 | 0.00 | 42 | 1015.2 |
| 20260902235122 | 87 | 189 | 5.0 | 13.0 | 0.00 | 0.00 | 0.00 | 42 | 1015.2 |
| 20260902234302 | 88 | 178 | 8.0 | 13.0 | 0.00 | 0.00 | 0.00 | 41 | 1015.2 |
| 20260902233801 | 89 | 175 | 6.0 | 16.0 | 0.00 | 0.00 | 0.00 | 39 | 1015.2 |
| 20260902233301 | 90 | 155 | 6.0 | 16.0 | 0.00 | 0.00 | 0.00 | 38 | 1015.2 |
| 20260902233128 | 91 | 116 | 8.0 | 13.0 | 0.00 | 0.00 | 0.00 | 36 | 1015.1 |
| 20260902232306 | 91 | 206 | 5.0 | 15.0 | 0.00 | 0.00 | 0.00 | 37 | 1014.8 |
| 20260902231802 | 91 | 89 | 7.0 | 15.0 | 0.00 | 0.00 | 0.00 | 37 | 1014.9 |
| 20260902231301 | 91 | 85 | 8.0 | 14.0 | 0.00 | 0.00 | 0.00 | 38 | 1014.9 |
| 20260902230802 | 91 | 104 | 5.0 | 14.0 | 0.00 | 0.00 | 0.00 | 37 | 1014.9 |
| 20260902230301 | 92 | 140 | 8.0 | 14.0 | 0.00 | 0.00 | 0.00 | 37 | 1014.9 |
| 20260902225802 | 92 | 94 | 5.0 | 15.0 | 0.00 | 0.00 | 0.00 | 37 | 1014.9 |
| 20260902225305 | 92 | 128 | 8.0 | 17.0 | 0.00 | 0.00 | 0.00 | 36 | 1014.9 |
| 20260902225125 | 92 | 134 | 7.0 | 17.0 | 0.00 | 0.00 | 0.00 | 37 | 1014.9 |
| 20260902224629 | 93 | 137 | 5.0 | 16.0 | 0.00 | 0.00 | 0.00 | 35 | 1014.8 |
| 20260902223801 | 94 | 133 | 5.0 | 17.0 | 0.00 | 0.00 | 0.00 | 36 | 1014.9 |
| 20260902223303 | 94 | 154 | 9.0 | 17.0 | 0.00 | 0.00 | 0.00 | 34 | 1014.9 |
| 20260902222801 | 94 | 176 | 5.0 | 15.0 | 0.00 | 0.00 | 0.00 | 34 | 1014.8 |
| 20260902222301 | 94 | 216 | 7.0 | 15.0 | 0.00 | 0.00 | 0.00 | 34 | 1014.9 |
| 20260902221804 | 93 | 164 | 5.0 | 13.0 | 0.00 | 0.00 | 0.00 | 36 | 1014.9 |
| 20260902221303 | 92 | 185 | 7.0 | 13.0 | 0.00 | 0.00 | 0.00 | 36 | 1015.1 |
| 20260902220805 | 90 | 147 | 6.0 | 12.0 | 0.00 | 0.00 | 0.00 | 38 | 1014.9 |
| 20260902220303 | 90 | 221 | 5.0 | 15.0 | 0.00 | 0.00 | 0.00 | 37 | 1015.2 |
| 20260902215801 | 90 | 210 | 7.0 | 15.0 | 0.00 | 0.00 | 0.00 | 36 | 1015.2 |
| 20260902215301 | 90 | 207 | 5.0 | 15.0 | 0.00 | 0.00 | 0.00 | 37 | 1015.2 |
| 20260902214806 | 92 | 137 | 8.0 | 15.0 | 0.00 | 0.00 | 0.00 | 35 | 1015.3 |
| 20260902214302 | 92 | 221 | 4.0 | 10.0 | 0.00 | 0.00 | 0.00 | 36 | 1015.4 |
| 20260902213801 | 93 | 203 | 5.0 | 13.0 | 0.00 | 0.00 | 0.00 | 35 | 1015.4 |
| 20260902213301 | 93 | 214 | 7.0 | 19.0 | 0.00 | 0.00 | 0.00 | 34 | 1015.3 |
| 20260902212948 | 95 | 195 | 6.0 | 17.0 | 0.00 | 0.00 | 0.00 | 37 | 1015.2 |
| 20260902212907 | 93 | 252 | 8.0 | 19.0 | 0.00 | 0.00 | 0.00 | 35 | 1015.3 |
| 20260902212124 | 95 | 149 | 4.0 | 11.0 | 0.00 | 0.00 | 0.00 | 38 | 1015.2 |
| 20260902211630 | 94 | 233 | 3.0 | 7.0 | 0.00 | 0.00 | 0.00 | 37 | 1015.1 |
| 20260902210801 | 94 | 159 | 4.0 | 7.0 | 0.00 | 0.00 | 0.00 | 39 | 1015.1 |
| 20260902210302 | 91 | 125 | 3.0 | 7.0 | 0.00 | 0.00 | 0.00 | 41 | 1015.3 |
| 20260902205802 | 90 | 219 | 2.0 | 12.0 | 0.00 | 0.00 | 0.00 | 45 | 1015.3 |
| 20260902205306 | 87 | 285 | 3.0 | 22.0 | 0.00 | 0.00 | 0.00 | 42 | 1015.4 |
| 20260902205130 | 86 | 180 | 9.0 | 22.0 | 0.00 | 0.00 | 0.00 | 49 | 1015.7 |
| 20260902204302 | 89 | 227 | 5.0 | 11.0 | 0.00 | 0.00 | 0.00 | 46 | 1015.7 |
| 20260902203801 | 91 | 234 | 6.0 | 14.0 | 0.00 | 0.00 | 0.00 | 38 | 1015.6 |
| 20260902203459 | 94 | 200 | 8.0 | 16.0 | 0.00 | 0.00 | 0.00 | 35 | 1015.7 |
| 20260902203414 | 92 | 164 | 6.0 | 14.0 | 0.00 | 0.00 | 0.00 | 36 | 1015.6 |
| 20260902202306 | 97 | 219 | 6.0 | 16.0 | 0.00 | 0.00 | 0.00 | 34 | 1015.8 |
| 20260902201801 | 97 | 145 | 8.0 | 14.0 | 0.00 | 0.00 | 0.00 | 34 | 1015.8 |
| 20260902201301 | 97 | 185 | 8.0 | 15.0 | 0.00 | 0.00 | 0.00 | 36 | 1015.8 |
| 20260902200801 | 96 | 238 | 8.0 | 15.0 | 0.00 | 0.00 | 0.00 | 35 | 1015.9 |
| 20260902200635 | 96 | 206 | 6.0 | 11.0 | 0.00 | 0.00 | 0.00 | 34 | 1015.9 |
| 20260902195953 | 94 | 164 | 6.0 | 12.0 | 0.00 | 0.00 | 0.00 | 37 | 1016.2 |
| 20260902195910 | 96 | 157 | 6.0 | 12.0 | 0.00 | 0.00 | 0.00 | 35 | 1016.1 |
| 20260902194802 | 91 | 217 | 0.0 | 1.0 | 0.00 | 0.00 | 0.00 | 43 | 1016.4 |
| 20260902194302 | 88 | 176 | 0.0 | 11.0 | 0.00 | 0.00 | 0.00 | 47 | 1016.4 |
| 20260902193802 | 87 | 248 | 1.0 | 12.0 | 0.00 | 0.00 | 0.00 | 47 | 1016.5 |
| 20260902193301 | 89 | 233 | 5.0 | 12.0 | 0.00 | 0.00 | 0.00 | 47 | 1016.7 |
| 20260902192802 | 91 | 180 | 6.0 | 14.0 | 0.00 | 0.00 | 0.00 | 40 | 1016.6 |
| 20260902192625 | 91 | 188 | 9.0 | 14.0 | 0.00 | 0.00 | 0.00 | 39 | 1016.7 |